Regional Weather Roundup
Issued by NWS Boston, MA

Current Version | Previous Version | Text Only | Print | Product List | Glossary Off
Versions: 1 2 3 4 5 6 7 8 9 10 11 12 13 14 15 16 17 18 19 20 21 22 23 24 25 26 27 28 29 30 31 32 33 34 35 36 37 38 39 40 41 42 43 44 45 46 47 48 49 50
000 ASUS41 KBOX 280010 RWRBOX REGIONAL WEATHER ROUNDUP NATIONAL WEATHER SERVICE TAUNTON MA 800 PM EDT THU AUG 27 2015 NOTE: "FAIR" INDICATES FEW OR NO CLOUDS BELOW 12,000 FEET WITH NO SIGNIFICANT WEATHER AND/OR OBSTRUCTIONS TO VISIBILITY. THE FOLLOWING OBSERVATION LOCATIONS DO NOT REPORT PRESENT WEATHER...PROVINCETOWN... SMITHFIELD...BLOCK ISLAND...KEENE...AND OXFORD. MAZALL-280100- EASTERN MASSACHUSETTS CITY SKY/WX TMP DP RH WIND PRES REMARKS BOSTON PTCLDY 75 52 44 W12 30.01R 6HR MIN TEMP: 75; 6HR MAX TEMP: 82; BEVERLY PTCLDY 71 54 54 NW7 30.01R LAWRENCE CLEAR 71 54 54 N7 30.03R BEDFORD PTCLDY 69 52 54 W5 30.01R BLUE HILL N/A 68 55 63 NW9 30.02R NORWOOD CLEAR 70 56 61 NW6 30.01R MARSHFIELD CLEAR 70 61 73 CALM 30.02R PLYMOUTH CLEAR 71 56 58 W5 30.02R TAUNTON CLEAR 69 56 62 W3 30.01R NEW BEDFORD CLEAR 68 57 68 W3 30.01R $$ MAZALL-280100- CAPE COD AND THE ISLANDS CITY SKY/WX TMP DP RH WIND PRES REMARKS FALMOUTH PTCLDY 70 59 68 NW6 30.01R HYANNIS PTCLDY 72 62 71 W7 30.00R CHATHAM PTCLDY 71 63 75 VRB5 30.01R PROVINCETOWN PTCLDY 66 57 72 SW3 30.01R NANTUCKET MOCLDY 70 63 78 W12 30.01R MARTHAS VNYRD PTCLDY 70 62 76 W8 30.02R $$ MAZALL-280100- CENTRAL AND WESTERN MASSACHUSETTS CITY SKY/WX TMP DP RH WIND PRES REMARKS WORCESTER CLEAR 65 55 70 W9 30.06R 6HR MIN TEMP: 65; 6HR MAX TEMP: 73; FITCHBURG CLEAR 69 55 60 NW6 30.04R ORANGE CLOUDY 68 57 68 W3 30.05R SPRINGFIELD CLEAR 69 56 62 W9 30.04R WESTFIELD MOCLDY 69 57 65 NW6 30.05R NORTH ADAMS PTCLDY 62 56 80 CALM 30.08R PITTSFIELD CLOUDY 63 54 72 W9 30.08R $$ RIZALL-280100- RHODE ISLAND CITY SKY/WX TMP DP RH WIND PRES REMARKS PROVIDENCE PTCLDY 72 55 55 W7 30.03R 6HR MIN TEMP: 72; 6HR MAX TEMP: 82; NEWPORT CLEAR 73 56 54 W6 30.03R BLOCK ISLAND PTCLDY 72 64 78 SW6 30.04R SMITHFIELD CLEAR 64 55 72 NW6 30.04R WESTERLY CLEAR 71 56 58 W3 30.04R $$ CTZALL-280100- CONNECTICUT CITY SKY/WX TMP DP RH WIND PRES REMARKS BRADLEY INTL MOCLDY 70 56 61 NW5 30.04R 6HR MIN TEMP: 70; 6HR MAX TEMP: 78; HARTFORD CLEAR 73 55 53 NW9 30.04R BRIDGEPORT CLEAR 75 55 49 NW7 30.05R DANBURY CLEAR 66 55 67 SW5 30.08R GROTON CLEAR 70 60 70 CALM 30.03R NEW HAVEN CLEAR 73 55 53 NW6 30.05R CHESTER NOT AVBL MERIDEN PTCLDY 68 57 68 NW3 30.05R WILLIMANTIC CLEAR 71 57 61 CALM 30.04R OXFORD PTCLDY 66 52 59 CALM 30.08S $$ MEZ002-015-021-024-NHZ003-005-008-011-012-014-VTZ005-008-280100- NORTHERN NEW ENGLAND CITY SKY/WX TMP DP RH WIND PRES REMARKS PORTLAND ME PTCLDY 70 57 63 W3 30.00R 6HR MIN TEMP: 70; 6HR MAX TEMP: 79; BANGOR ME PTCLDY 67 56 67 NW7 29.96R CONCORD NH CLEAR 68 54 60 NW5 30.03R MANCHESTER NH PTCLDY 72 53 51 NW5 30.01R NASHUA NH PTCLDY 70 56 61 CALM 30.03R PORTSMOUTH NH PTCLDY 69 57 65 NW7 30.00R JAFFREY NH MOCLDY 66 56 70 CALM 30.06R KEENE NH CLEAR 66 54 63 CALM 30.05R BURLINGTON VT PTCLDY 69 53 56 W7 30.06R MT. WASHINGTON FOG 41 41 100 W30G40 N/A VSB 1/16WCI 30 $$ NYZ052-076-280100- EASTERN NEW YORK CITY SKY/WX TMP DP RH WIND PRES REMARKS ALBANY MOCLDY 67 55 65 W7 30.07R 6HR MIN TEMP: 67; 6HR MAX TEMP: 75; NEW YORK CITY PTCLDY 74 53 48 NW14 30.06R 6HR MIN TEMP: 74; 6HR MAX TEMP: 80; $$ ANZALL-280100- MARINE OBSERVATIONS STATION/POSITION TIME TEMP WIND PRES VSBY WAVE AIR SEA DIR/SP/G HT/PER (UTC) (F) (DEG/KT/KT) (MB) (MI) (FT/S) BOSTON BUOY 2350 71 70 200/ 6/ 8 1015.9R 3/ 9 BUZZARDS BAY 2300 240/ 16/ 17 1016.8R NANTUCKET SOUND 2350 74 75 270/ 17/ 19 1015.3R 2/ 6 MASS BAY-STELLWA NOT AVBL ISLE OF SHOALS 0000 72 320/ 10/ 11 1015.5R S OF BLOCK IS 2308 75 N/A 3/11 $$ ......................KEY......................... SKY/WX - SKY CONDITION/PRESENT WEATHER TMP - TEMPERATURE IN FAHRENHEIT DWPT - DEWPOINT IN FAHRENHEIT RH - RELATIVE HUMIDITY IN PERCENT WIND - DIRECTION AND SPEED IN MPH PRES - MEAN SEA LEVEL PRESSURE IN INCHES OF HG WCI - WIND CHILL INDEX VSB - VISIBILITY IN MILES HX - HEAT INDEX TC - TEMPERATURE IN CELSIUS VRB - VARIABLE WIND DIRECTION N/A - NOT AVAILABLE

USA.gov is the U.S. government's official web portal to all federal, state and local government web resources and services.